Banff, Alberta

11:58 PM MDT on August 20, 2017 (GMT -0600)
Banff

Weather History for CWZG - January, 2013

Change the Weather History Date:

Wednesday, January 9, 2013

  Actual Average Record
Temperature  
Mean Temperature 24 °F -  
Max Temperature 28 °F - - ()
Min Temperature 19 °F - - ()
Degree Days  
Heating Degree Days 42    
Moisture  
Dew Point 22 °F    
Average Humidity 92    
Maximum Humidity 95    
Minimum Humidity 89    
Precipitation  
Precipitation 0.37 in - - ()
Sea Level Pressure  
Sea Level Pressure 29.61 in    
Wind  
Wind Speed 4 mph ()    
Max Wind Speed 8 mph    
Max Gust Speed -    
T = Trace of Precipitation, MM = Missing Value Source: Averaged Metar Reports

Daily Weather History Graph

Daily Weather History Graph

Search for Another Location

Airport or City:

Trip Planner

Search our weather history database for the weather conditions in past years. The results will help you decide how hot, cold, wet, or windy it might be!

Date:

Astronomy

Jan. 09, 2013 Rise Set
Actual Time 8:43 AM MST 4:55 PM MST
Civil Twilight 8:04 AM MST 5:34 PM MST
Nautical Twilight 7:22 AM MST 6:16 PM MST
Astronomical Twilight 6:42 AM MST 6:56 PM MST
Moon 6:28 AM MST (1/9) 3:01 PM MST (1/9)
Length of Visible Light 9h 29m
Length of Day
8h 12m
Waning Crescent, 6% of the Moon is Illuminated
Jan 9
Waning Crescent
Jan 11
New
Jan 18
First Quarter
Jan 26
Full
Feb 3
Last Quarter

Hourly Weather History & Observations

Time (MST) Temp. Windchill Dew Point Humidity Pressure Visibility Wind Dir Wind Speed Gust Speed Precip Events Conditions
12:00 AM 19.8 °F 9.9 °F 17.2 °F 90% 29.75 in - SW 8.1 mph - N/A   Unknown
1:00 AM 19.9 °F - 17.4 °F 90% 29.72 in - WSW 2.3 mph - N/A   Unknown
2:00 AM 20.1 °F - 17.8 °F 91% 29.70 in - WSW 2.3 mph - N/A   Unknown
3:00 AM 20.3 °F 11.5 °F 17.8 °F 90% 29.66 in - WSW 6.9 mph - N/A   Unknown
4:00 AM 20.3 °F 11.5 °F 18.0 °F 91% 29.64 in - SW 6.9 mph - 0.01 in   Unknown
5:00 AM 20.8 °F 16.0 °F 18.7 °F 91% 29.60 in - West 3.5 mph - 0.03 in   Unknown
6:00 AM 20.8 °F - 18.7 °F 91% 29.57 in - West 2.3 mph - 0.04 in   Unknown
7:00 AM 21.4 °F - 19.4 °F 92% 29.57 in - SE 1.2 mph - 0.02 in   Unknown
8:00 AM 21.2 °F 16.4 °F 19.2 °F 92% 29.58 in - WSW 3.5 mph - 0.04 in   Unknown
9:00 AM 20.8 °F 14.4 °F 18.7 °F 91% 29.57 in - WSW 4.6 mph - 0.04 in   Unknown
10:00 AM 22.6 °F 18.0 °F 20.8 °F 93% 29.57 in - West 3.5 mph - 0.06 in   Unknown
11:00 AM 23.7 °F 16.6 °F 21.9 °F 93% 29.57 in - SW 5.8 mph - 0.05 in   Unknown
12:00 PM 24.8 °F 16.9 °F 23.0 °F 93% 29.55 in - SSW 6.9 mph - 0.02 in   Unknown
1:00 PM 26.1 °F 17.6 °F 24.3 °F 93% 29.54 in - SSW 8.1 mph - 0.01 in   Unknown
2:00 PM 28.2 °F 23.1 °F 26.4 °F 93% 29.53 in - SW 4.6 mph - N/A   Unknown
3:00 PM 28.4 °F 22.2 °F 26.1 °F 91% 29.54 in - SW 5.8 mph - N/A   Unknown
4:00 PM 28.6 °F - 26.4 °F 92% 29.55 in - South 1.2 mph - N/A   Unknown
5:00 PM 28.0 °F - 26.4 °F 94% 29.55 in - SW 1.2 mph - N/A   Unknown
7:00 PM 27.9 °F 24.0 °F 26.6 °F 95% 29.59 in - SSW 3.5 mph - N/A   Unknown
8:00 PM 27.3 °F - 25.9 °F 94% 29.63 in - South 2.3 mph - 0.05 in   Unknown
9:00 PM 25.7 °F - 24.1 °F 94% 29.65 in - ENE 2.3 mph - N/A   Unknown
10:00 PM 26.6 °F - 25.0 °F 94% 29.69 in - NE 1.2 mph - N/A   Unknown
11:00 PM 26.8 °F 21.4 °F 23.9 °F 89% 29.71 in - NE 4.6 mph - N/A   Unknown